Powrót do katalogu

DELTA 1 DEB

AktywnyLEO
NORAD 29183·DEBRIS·🇺🇸 United States

Wystrzelony Jan 11, 1968 z Vandenberg Space Force Base

Loading…

Następne Przeloty (najbliższe 24 godziny)

TLE

NieaktualneSource: Space-Track

Epoka: Aug 28, 2026, 12:02 UTC

1 29183U 68002G   26240.50176020  .00001326  00000-0  23090-2 0  9992
2 29183 105.8002 106.8886 0220247 173.5113 305.8423 13.38476776101207

Śledź DELTA 1 DEB w czasie rzeczywistym z AllMySat

Download on the App Store